Charter Quote
Worldwide +1-877-727-2538 Call
Select Language Lang
SAFETY RELIABILITY EXPERIENCE

Private Jet Charter Services - Wujiaba (ZPPP)

Paramount Business Jets offers private jet charter flights and luxury airliner charters to and from Wujiaba.

AIRPORT INFORMATION
ICAOZPPP
LOCATIONKunming, China
FACILITY TYPEAIRPORT

At Paramount Business Jets you can hire chartered private jets to and from Wujiaba with as little as 4 hours of notice. All flights booked via Paramount Business Jets are operated by certified direct air carriers that meet and exceed the FAA part 135 and 121 protocol or a foreign equivalent safety authority. Furthermore, Paramount Business Jets subscribes to ARGUS for their third party safety checks of operators, aircraft, and crews prior each and every flight to and from Wujiaba and worldwide.

  • Quote a trip using Wujiaba or call us 24/7 - 365 days a year at +1-877-727-2538.
Questions? Call +1-877-727-2538

METAR Weather Data at Wujiaba, ZPPP

STATIONZPPP
OBSERVEDThu Nov 14, 16:00 UTC
NOWThu Nov 14, 16:22 UTC
AGE22 min ago
WINDSW at 11 mph
VISIBILITY4.8 miles
CONDITIONSmist
CLOUDSmostly cloudy
TEMP50°F (10°C)
WIND CHILL46°F (8°C)
DEWPT50°F (10°C)
HUMIDITY100%
BAROMETER1025 hPa (30.27 in Hg)
METARZPPP 141600Z 22005MPS 3000 BR FEW006 BKN033 10/10 Q1025 NOSIG

Call us on +1-877-727-2538 (24 Hours), Check our Pricing, or Get a Quick Quote.

Find Airports Near any Location

Processing
...